STARLINK-2253 (48596 NORAD) Tracking and Keplerian Element Data

This shows tracking and keplerian element data for the satellite.

Feedback or suggestion? Click here.




ElementValue
Catalog48596
NameSTARLINK-2253
Epoch Orbit1238
Epoch Day215.25002315
Epoch Year2021
RAAN120.9084
Inclination53.0539
Eccentricity0.0001942
Argument of Perigee73.3637
Mean Anonmoly109.2773
Mean Motion15.06373857
Decay Rate0.00024116
L11 48596U 21041AV 21215.25002315 .00024116 00000-0 16335-2 0 9993
L22 48596 53.0539 120.9084 0001942 73.3637 109.2773 15.06373857 12386

Live tracking and technical data element details for STARLINK-2253 (NORAD 48596). STARLINK-2253 can be tracked NOW for your location showing map with azimuth and elevation plus other details from your city location.

Track the satellite on the map from your city or location and see movement details for azimuth, elevation, latitude, longitude, range, height, and movement on the map or in text.







IsCatalogInMostPopularTable: catalog: 48596, numindb: 19
Update: records affected: 1



GetName: 48596 STARLINK-2253

Hit Count: updated at: Tue, 03 Aug 2021 21:31:33 GMT